Temperature
18 18 18 18 18 18 18 18 18 18 18 18 19 19 19 18 18 18 18 18 18 18 18 18 18 18 17 17 17 17 17 16 16 16 16 16 16 16 16 16 16 16 16
19 18 18 18 19 19 18 18 18 18 18 18 18 19 19 18 18 18 18 18 18 18 18 18 18 18 17 17 17 17 17 17 16 16 16 16 16 16 16 16 16 16 16
19 19 19 19 19 19 19 19 18 18 18 18 18 18 18 18 18 18 18 18 18 18 18 17 18 17 17 17 17 17 17 17 17 16 16 16 16 16 16 16 16 16 16
19 19 19 19 19 19 19 19 19 18 18 18 18 18 18 18 18 18 18 17 17 17 17 17 17 17 17 17 17 17 17 16 16 16 16 16 16 16 16 16 16 16 16
19 19 19 19 19 19 19 19 18 18 18 18 18 18 18 18 18 18 18 18 17 17 17 17 17 17 17 17 17 16 16 16 16 16 16 16 16 16 16 16 16 16 16
19 19 19 19 19 19 19 18 18 18 18 18 18 18 18 18 18 18 18 17 17 17 17 17 17 17 17 16 16 16 16 16 16 16 16 16 16 16 16 16 16 15 15
18 19 18 18 19 18 18 18 18 18 18 18 18 18 18 18 18 18 17 17 17 17 17 17 17 17 16 16 16 16 16 16 16 16 16 16 16 16 16 16 15 15 15
18 19 19 19 18 18 18 18 18 18 18 18 18 18 17 17 17 17 17 17 17 17 17 16 16 16 16 16 16 16 16 16 16 16 16 16 16 16 15 15 15 15 15
19 19 19 18 18 18 18 18 18 18 18 18 18 18 17 17 17 17 17 17 17 17 16 16 16 16 16 16 16 16 16 16 16 16 16 15 15 15 15 15 15 15 15
19 18 18 18 18 18 18 18 18 18 18 18 18 18 18 17 17 16 16 17 16 16 16 16 16 16 15 15 15 15 15 15 15 15 15 15 15 15 15 15 14 14 14
18 18 18 18 18 18 18 18 18 18 18 17 17 18 18 17 17 16 16 16 16 16 16 15 15 15 15 15 15 15 15 15 15 15 15 15 15 15 14 14 14 14 14
18 18 18 18 18 18 18 18 18 17 17 17 17 17 17 17 17 17 16 15 15 15 15 15 15 15 15 15 15 15 15 15 15 15 15 15 14 14 14 14 14 14 13
18 18 18 18 18 18 18 18 17 17 17 17 17 17 17 17 17 16 16 15 15 15 15 14 14 14 15 15 15 14 14 14 14 14 14 14 14 14 14 13 13 13 13
18 18 18 18 18 18 17 17 17 17 17 17 17 17 17 16 16 16 16 15 15 14 14 14 14 14 14 14 14 14 14 14 14 14 14 14 14 13 13 13 13 13 13
18 18 18 18 18 18 18 17 17 17 17 16 16 16 16 16 16 16 16 16 15 14 14 14 13 13 14 14 14 14 14 14 13 13 13 13 13 13 13 13 12 12 12
18 18 18 17 17 17 17 17 16 17 16 16 16 16 16 16 16 16 16 15 15 15 14 14 14 13 13 13 13 13 13 13 13 13 13 13 13 13 12 12 12 12 12
18 18 17 17 17 17 17 17 16 16 16 16 16 16 16 16 16 15 15 15 15 15 15 14 13 13 13 13 13 13 13 13 13 13 13 13 12 12 12 12 12 12 12
18 18 17 17 17 17 17 16 16 16 16 16 16 16 16 15 15 15 15 15 15 15 15 14 13 13 13 13 13 12 12 12 12 12 12 12 12 12 12 12 11 11 11
18 17 17 17 17 17 16 16 16 16 16 15 15 15 15 15 15 15 15 15 15 15 14 14 13 13 13 12 12 12 12 12 12 12 12 12 12 11 11 11 11 11 11
17 17 17 17 16 16 16 16 16 15 15 15 15 15 15 15 15 15 15 15 14 14 14 14 13 13 12 12 12 12 12 12 12 11 11 11 11 11 11 11 11 10 10
17 17 17 16 16 16 16 16 15 15 15 15 15 15 15 15 15 15 15 15 14 14 14 13 13 13 12 12 12 12 12 12 11 11 11 11 11 11 11 11 11 10 10
17 17 16 16 16 16 15 15 15 15 15 15 14 14 14 14 14 14 14 14 14 14 14 13 13 13 12 12 12 12 12 11 11 11 11 11 11 11 11 11 11 10 10
17 16 16 16 16 16 15 15 15 15 14 14 14 14 14 14 14 14 14 14 14 14 14 13 13 13 12 12 12 12 12 12 11 11 11 11 11 11 10 10 10 10 10
16 16 16 16 16 15 15 15 15 14 14 14 14 14 14 14 13 13 13 13 13 13 13 13 13 13 12 12 12 12 12 12 11 11 11 11 11 10 10 10 10 10 10
16 16 16 16 15 15 15 15 14 14 14 14 14 14 14 14 13 13 13 13 13 13 13 12 12 12 12 12 12 12 12 11 11 11 11 11 11 10 10 10 10 10 10
16 15 15 15 15 15 15 15 14 14 14 14 14 14 14 13 13 13 13 13 13 12 12 12 12 12 12 12 12 11 11 11 11 11 11 11 10 10 10 10 10 10 9
Wind_Speed
3 3 1 1 2 3 4 2 2 1 1 0 1 1 2 3 6 8 10 14 14 13 11 10 10 9 9 9 8 8 7 7 6 6 7 7 7 6 6 6 6 7 7
3 2 2 1 0 1 2 2 2 2 2 1 1 2 2 2 4 7 9 11 13 12 12 11 10 9 9 9 9 9 8 8 9 8 9 9 8 8 8 7 7 7 7
2 1 2 2 2 2 3 2 1 1 2 2 1 1 1 1 2 4 7 9 10 11 11 11 10 9 9 9 10 10 10 10 10 10 10 10 10 10 10 9 9 8 8
1 1 1 1 1 1 2 2 1 1 1 1 1 1 1 1 2 3 4 6 9 9 10 11 10 9 9 8 8 9 9 10 10 11 11 11 11 11 11 10 10 9 8
1 1 0 1 0 0 1 1 2 1 1 1 0 1 1 1 1 2 2 4 6 7 9 10 10 9 7 7 7 8 8 9 9 10 11 12 11 11 11 10 9 8 8
1 1 1 1 1 0 1 1 2 1 1 1 1 1 0 1 0 1 2 2 4 5 6 8 8 6 6 5 5 6 7 9 9 9 10 11 11 11 10 9 9 8 8
1 1 1 0 0 0 0 0 1 1 1 2 1 0 1 1 1 1 2 2 3 4 5 6 8 7 5 5 3 3 4 5 6 6 7 7 8 8 8 8 8 7 7
2 1 1 1 1 1 1 1 1 2 2 2 1 1 1 0 2 1 2 2 3 4 5 5 5 5 5 5 3 3 2 2 3 5 6 6 6 7 7 7 6 6 6
1 2 1 1 1 1 0 2 1 2 2 2 2 2 1 1 1 2 2 2 2 3 3 5 7 6 6 5 4 3 3 2 2 3 5 6 7 6 7 6 6 6 5
1 1 2 2 2 2 1 2 0 1 2 2 2 2 1 2 2 1 1 2 2 2 2 3 6 7 7 7 6 7 5 4 3 3 3 4 5 6 7 7 6 5 5
1 1 2 2 1 1 2 2 2 2 2 2 1 1 0 1 2 2 1 0 1 2 3 3 5 6 7 7 6 7 6 6 5 4 4 4 4 5 5 5 5 5 4
1 2 2 2 2 2 2 2 2 2 1 1 2 1 1 1 1 1 1 1 1 1 3 3 3 5 6 7 7 8 8 8 8 7 5 4 4 4 4 4 3 3 3
2 2 2 2 2 2 1 1 1 2 2 2 2 1 1 1 0 1 3 2 1 0 1 1 2 6 6 7 7 9 9 10 9 8 7 6 5 5 4 4 4 4 4
2 2 2 2 2 2 2 2 2 2 2 2 2 1 1 1 2 2 3 3 2 1 1 1 1 4 6 7 8 9 10 11 11 10 9 9 8 8 7 7 6 5 5
2 3 2 3 3 3 3 3 2 3 3 3 2 2 2 1 1 2 2 3 3 2 1 1 1 2 6 7 8 9 10 11 11 11 11 10 10 10 9 9 8 7 6
3 3 3 3 3 3 3 2 3 3 3 3 2 3 2 1 1 1 1 1 1 3 2 1 1 2 4 6 7 9 11 11 11 11 11 11 11 11 10 10 10 9 8
3 2 3 3 3 3 3 3 3 3 4 3 3 3 3 3 1 1 0 1 2 2 4 2 3 3 3 4 5 7 10 9 9 10 11 11 11 11 10 10 9 9 8
2 2 2 2 2 3 3 4 4 4 4 4 4 4 3 3 3 1 1 2 2 3 5 5 3 3 3 3 3 3 7 8 9 10 11 11 10 10 10 9 9 8 8
2 2 2 2 3 4 4 4 4 4 5 5 5 5 5 5 4 3 3 2 2 3 5 6 4 3 2 2 2 2 5 5 8 9 10 9 9 9 9 8 8 7 7
2 2 3 3 3 3 4 3 4 4 5 5 6 6 6 5 5 4 4 3 3 4 5 5 5 3 2 1 2 2 3 2 3 6 7 8 9 8 8 7 7 6 6
3 3 3 3 2 3 3 3 3 5 5 5 6 6 7 9 10 6 4 4 4 3 3 4 4 3 2 1 1 1 2 2 2 2 3 5 7 6 6 6 6 6 5
3 3 3 3 3 4 6 6 4 4 4 4 4 4 6 7 8 9 10 8 6 4 3 3 3 3 2 1 0 1 1 2 1 1 2 3 6 4 7 7 8 7 6
4 3 4 4 4 5 5 5 5 2 3 4 3 3 4 5 4 4 6 7 8 7 6 3 3 3 2 1 1 1 1 2 1 1 2 2 3 3 6 9 12 11 9
4 4 4 4 4 4 4 4 3 2 3 4 4 4 4 4 4 3 4 5 4 4 3 3 3 3 3 1 0 0 1 2 2 1 1 0 1 1 4 8 12 13 11
4 4 4 4 3 3 3 4 3 2 3 3 4 4 3 4 5 4 3 3 3 2 4 6 6 5 4 4 3 1 1 0 1 1 0 0 1 1 2 3 8 13 12
4 4 4 4 4 4 3 3 3 1 2 3 4 4 6 5 5 5 2 1 2 1 1 3 3 3 3 3 2 0 0 1 1 0 0 0 1 0 1 1 3 6 8
Wind_Direction
98 106 111 136 161 139 154 168 168 129 127 116 171 145 101 111 118 128 139 153 156 161 165 172 178 181 185 190 193 193 193 197 201 204 205 207 208 206 202 204 206 209 211
107 123 133 118 136 151 142 138 138 138 137 109 78 72 55 88 115 133 143 157 164 169 174 178 185 191 194 197 199 200 204 206 210 214 213 213 214 215 215 216 217 218 217
120 133 157 189 175 170 145 158 161 141 161 154 137 125 116 131 137 143 155 161 168 178 182 185 189 193 197 202 204 205 209 212 213 213 214 215 217 220 220 222 223 221 218
114 261 213 153 132 179 169 157 184 152 97 94 116 176 119 114 127 139 158 166 169 172 182 188 190 195 202 206 207 207 211 215 216 215 216 217 219 220 220 222 223 223 219
141 258 55 101 246 210 175 197 118 124 126 101 221 199 177 179 173 168 157 159 157 156 162 179 186 187 193 202 206 210 213 217 219 220 220 220 218 217 216 218 219 219 220
193 244 183 187 210 57 35 49 94 104 151 188 258 349 244 214 168 145 154 131 134 140 148 151 162 179 188 194 204 216 219 219 219 222 221 219 217 216 212 211 215 218 220
294 246 330 350 199 194 233 59 117 178 205 179 165 302 347 330 109 138 137 113 101 107 108 119 136 145 153 178 184 186 195 201 200 204 205 207 207 204 201 204 209 211 208
266 252 205 284 340 356 14 261 219 225 236 221 197 186 203 342 28 43 93 115 110 95 95 101 110 117 122 127 138 169 177 191 197 197 194 187 185 186 187 189 193 196 199
338 334 325 330 344 298 277 263 233 243 245 249 232 218 213 174 50 17 47 76 93 92 92 96 92 86 87 84 92 111 135 145 159 171 181 187 184 179 175 177 180 183 182
60 356 355 32 12 348 348 302 355 281 266 271 264 250 230 153 157 144 31 46 70 77 79 80 84 84 85 79 71 74 83 96 114 134 150 163 166 165 167 177 186 181 179
69 42 57 38 17 3 19 347 331 310 291 293 302 290 283 206 191 180 194 170 47 62 91 92 81 78 81 88 82 76 78 86 92 96 105 129 146 148 153 162 173 173 169
89 52 77 38 36 23 11 353 328 324 327 324 296 290 266 237 193 152 173 170 109 56 75 87 101 94 92 86 82 80 81 83 85 89 97 108 123 138 144 150 155 161 170
105 66 54 37 43 37 11 3 344 4 357 335 310 324 315 280 184 144 153 161 156 145 110 78 99 93 101 95 88 84 81 83 82 85 89 97 104 107 107 108 110 109 101
78 86 74 66 44 20 15 17 8 21 38 4 3 11 318 356 106 129 147 149 158 180 113 95 73 91 101 104 102 95 85 86 84 84 86 86 88 91 94 96 96 94 88
81 66 62 67 64 48 30 27 43 27 20 14 17 25 10 36 106 137 139 161 169 176 158 151 118 95 104 106 115 107 99 90 89 89 87 83 82 86 88 87 86 84 80
61 67 59 58 56 52 41 30 50 43 33 34 41 45 36 30 49 93 119 171 165 157 154 147 126 125 119 120 126 122 116 107 99 99 95 91 90 90 89 87 86 84 79
76 63 59 55 56 54 47 47 55 49 46 38 33 51 43 45 49 63 73 100 109 126 135 124 100 109 97 108 129 128 126 119 110 108 107 104 99 95 94 91 88 86 83
95 85 73 67 69 68 56 49 44 48 48 42 38 41 38 46 53 53 67 82 96 113 129 128 123 121 121 130 146 143 135 132 128 124 120 115 111 107 102 98 94 91 87
114 100 88 78 65 66 65 57 58 52 49 46 42 42 39 42 41 43 59 68 91 109 119 131 131 124 126 135 130 128 124 134 137 138 134 132 128 123 118 112 105 99 93
118 103 91 85 79 73 64 57 74 69 62 57 54 54 51 47 40 45 63 60 82 99 111 121 124 125 108 133 132 144 136 146 138 145 145 148 147 137 132 127 123 117 108
126 106 105 99 99 88 64 50 74 91 79 74 71 73 73 70 60 54 72 63 74 88 111 118 120 113 99 120 163 195 145 153 138 139 154 165 165 161 157 156 150 143 133
115 112 107 94 84 78 60 49 51 78 86 82 83 90 101 84 78 72 71 69 67 84 89 103 107 119 117 129 197 169 131 144 161 179 175 178 171 170 174 172 171 166 164
132 119 105 98 92 76 65 55 48 74 91 87 81 77 86 82 76 85 83 77 68 64 74 90 103 114 129 137 201 207 178 156 150 198 189 182 169 162 165 171 177 181 184
140 133 119 112 109 89 64 50 36 95 91 91 82 76 80 66 45 54 99 96 88 65 67 85 88 83 87 71 318 218 250 163 149 100 74 190 177 172 156 166 184 189 196
145 142 135 127 115 99 65 41 20 133 117 99 88 73 80 71 35 41 105 112 108 115 97 97 105 110 104 80 50 27 359 19 168 135 89 261 234 228 157 156 185 196 204
154 152 143 139 136 126 96 45 360 185 146 128 117 100 74 70 52 37 86 113 128 153 132 139 141 164 167 161 145 150 321 312 325 13 129 239 251 250 248 182 182 196 210
Height
1551 1552 1552 1552 1553 1554 1554 1555 1555 1556 1557 1557 1558 1558 1559 1559 1559 1559 1560 1560 1561 1561 1562 1562 1563 1563 1563 1564 1565 1565 1566 1566 1567 1568 1568 1569 1570 1571 1572 1572 1573 1574 1575
1552 1553 1553 1553 1554 1554 1555 1555 1556 1556 1557 1557 1558 1558 1559 1559 1559 1559 1560 1560 1560 1560 1561 1561 1561 1562 1562 1562 1563 1564 1564 1565 1565 1566 1566 1567 1568 1569 1570 1570 1571 1572 1573
1553 1554 1554 1554 1554 1555 1555 1555 1556 1556 1557 1557 1557 1558 1558 1558 1559 1559 1559 1559 1559 1559 1560 1560 1560 1560 1561 1561 1562 1562 1562 1563 1563 1564 1564 1565 1566 1567 1568 1568 1569 1570 1570
1553 1553 1554 1554 1554 1555 1555 1555 1555 1556 1556 1557 1557 1557 1558 1558 1558 1558 1558 1558 1558 1558 1558 1558 1559 1559 1559 1560 1560 1560 1561 1561 1561 1562 1562 1562 1563 1564 1565 1566 1567 1568 1568
1553 1553 1553 1554 1554 1554 1554 1555 1555 1555 1555 1555 1556 1556 1556 1557 1557 1557 1556 1557 1557 1556 1556 1557 1557 1558 1558 1558 1558 1558 1558 1559 1559 1559 1560 1560 1561 1561 1562 1563 1564 1565 1565
1552 1553 1553 1553 1553 1553 1553 1553 1553 1554 1554 1554 1554 1555 1555 1555 1555 1555 1555 1555 1555 1555 1555 1555 1555 1555 1556 1556 1556 1556 1556 1556 1556 1556 1557 1557 1558 1559 1559 1560 1561 1562 1562
1552 1552 1552 1552 1552 1552 1552 1552 1552 1552 1552 1552 1553 1553 1553 1553 1553 1553 1553 1553 1553 1553 1553 1553 1553 1553 1554 1554 1554 1554 1554 1553 1553 1553 1554 1554 1555 1556 1556 1557 1558 1558 1559
1551 1551 1551 1551 1551 1551 1551 1550 1550 1550 1551 1551 1551 1551 1552 1553 1552 1552 1552 1552 1552 1552 1552 1552 1552 1552 1552 1552 1552 1552 1552 1551 1551 1551 1551 1551 1552 1553 1554 1554 1555 1555 1556
1550 1550 1550 1550 1550 1549 1549 1549 1549 1548 1548 1549 1549 1550 1550 1550 1551 1551 1551 1551 1551 1551 1551 1551 1551 1550 1550 1550 1550 1550 1550 1550 1549 1549 1549 1549 1550 1550 1551 1551 1552 1553 1554
1549 1549 1549 1548 1548 1548 1547 1547 1547 1547 1547 1547 1547 1548 1548 1548 1549 1549 1550 1550 1550 1550 1550 1550 1550 1549 1548 1548 1548 1548 1548 1548 1547 1547 1547 1547 1548 1548 1548 1549 1550 1551 1552
1548 1548 1548 1547 1547 1546 1546 1545 1545 1545 1545 1545 1545 1545 1545 1546 1546 1547 1548 1549 1549 1549 1549 1549 1549 1548 1547 1547 1546 1546 1546 1546 1546 1545 1545 1545 1546 1546 1547 1547 1548 1549 1549
1547 1547 1546 1546 1545 1545 1544 1543 1543 1543 1543 1542 1543 1543 1543 1544 1544 1544 1545 1546 1547 1548 1548 1548 1547 1547 1546 1546 1545 1545 1545 1544 1544 1544 1544 1544 1544 1545 1545 1546 1546 1547 1547
1546 1546 1545 1545 1544 1544 1543 1542 1542 1541 1541 1541 1541 1541 1542 1542 1542 1542 1542 1543 1545 1546 1547 1547 1546 1546 1546 1545 1545 1545 1544 1543 1543 1543 1543 1543 1543 1543 1543 1544 1544 1545 1545
1545 1544 1544 1543 1543 1542 1542 1541 1541 1540 1540 1540 1540 1540 1541 1541 1541 1541 1541 1542 1543 1544 1546 1546 1546 1545 1545 1545 1544 1544 1543 1543 1543 1542 1542 1541 1541 1541 1541 1542 1543 1543 1544
1544 1543 1543 1543 1542 1541 1541 1540 1540 1540 1540 1540 1540 1539 1539 1540 1540 1540 1540 1540 1541 1542 1543 1544 1545 1545 1544 1544 1543 1543 1543 1543 1542 1542 1542 1541 1540 1541 1541 1541 1541 1542 1542
1543 1543 1542 1542 1542 1541 1540 1540 1540 1539 1539 1539 1539 1538 1538 1538 1539 1539 1539 1539 1540 1540 1540 1542 1543 1544 1544 1544 1543 1543 1543 1543 1542 1542 1541 1541 1540 1540 1540 1541 1541 1541 1541
1543 1542 1542 1542 1541 1541 1540 1540 1540 1539 1539 1538 1538 1538 1537 1538 1538 1538 1538 1539 1539 1540 1540 1541 1542 1543 1543 1543 1543 1543 1543 1543 1542 1542 1542 1541 1541 1540 1540 1540 1541 1540 1540
1542 1542 1542 1541 1541 1541 1540 1540 1539 1539 1539 1538 1538 1537 1537 1537 1537 1537 1537 1538 1538 1539 1539 1540 1541 1542 1543 1543 1543 1544 1543 1543 1543 1543 1542 1542 1541 1541 1540 1540 1540 1540 1540
1541 1541 1541 1541 1541 1540 1540 1540 1539 1539 1538 1538 1538 1537 1537 1537 1536 1537 1537 1538 1538 1539 1539 1540 1541 1542 1542 1543 1543 1544 1544 1544 1544 1543 1543 1542 1542 1541 1541 1541 1540 1540 1539
1541 1541 1541 1541 1541 1540 1540 1539 1539 1539 1538 1538 1538 1538 1537 1537 1537 1537 1537 1538 1538 1539 1539 1540 1541 1542 1542 1543 1543 1544 1544 1544 1544 1543 1543 1543 1542 1542 1541 1541 1540 1539 1539
1540 1540 1540 1540 1540 1540 1540 1540 1539 1539 1539 1538 1538 1538 1538 1538 1538 1538 1538 1538 1538 1539 1539 1540 1540 1541 1541 1542 1542 1543 1543 1544 1544 1544 1543 1543 1542 1541 1541 1540 1540 1539 1538
1540 1540 1540 1540 1540 1540 1540 1540 1540 1539 1539 1539 1539 1539 1539 1539 1538 1538 1538 1538 1539 1539 1540 1540 1540 1541 1541 1542 1542 1542 1543 1543 1543 1544 1543 1543 1542 1541 1541 1540 1539 1539 1538
1539 1539 1539 1539 1539 1540 1540 1540 1540 1539 1539 1539 1539 1539 1539 1539 1539 1539 1539 1539 1540 1540 1541 1541 1541 1541 1541 1542 1542 1542 1542 1542 1542 1542 1542 1542 1542 1540 1540 1539 1539 1538 1538
1538 1538 1538 1539 1539 1539 1540 1540 1540 1540 1539 1539 1539 1539 1539 1539 1539 1539 1540 1540 1540 1540 1541 1541 1541 1541 1541 1541 1541 1542 1542 1542 1542 1542 1542 1541 1541 1541 1540 1539 1539 1538 1537
1537 1537 1538 1538 1539 1539 1539 1539 1540 1539 1539 1539 1539 1539 1539 1539 1540 1540 1540 1540 1540 1540 1541 1541 1541 1541 1541 1541 1541 1541 1541 1541 1541 1541 1541 1540 1540 1540 1539 1539 1538 1537 1537
1536 1537 1537 1538 1538 1538 1539 1539 1539 1539 1539 1539 1539 1539 1539 1539 1539 1540 1540 1540 1540 1540 1540 1540 1540 1540 1540 1540 1540 1540 1540 1540 1540 1540 1539 1539 1539 1538 1538 1537 1536 1536 1535